Showing default

MKA PN2 (RELEK), 40070

Orbit data source: Space-Track

MKA PN2 (RELEK), 40070 is a Commonwealth of Independent States-origin payload satellite in SSO that was launched on Tue, 08 Jul 2014 UTC via a SOYUZ-2-1B launch vehicle from the Tyuratam Missile And Space Complex (TTMTR). Payload-class satellites include a variety of spacecraft equipped with specific instruments for various scientific and technological missions. These include communications satellites like Starlink; space stations such as the ISS; scientific satellites like the Hubble; Earth observation satellites from companies like Planet Labs, Umbra, and HawkEye 360; GPS; miniature CubeSats for education and research; and military/defense satellites.

Loading next visibility...
Identifier
40070, 2014-037B
Orbit
SSO
Country
Flag of CISCIS
Related business
Manufacturer
Lavochkin
Mission
Non-operational Civil Science
Bus & Motor
KARAT, Unknown motor
Mass
288 kg wet, 288 kg dry
Launch date (UTC)
2014-07-08 (11 years ago)
Launch vehicle
SOYUZ-2-1B
Launch site
Tyuratam Missile And Space Complex (TTMTR)
Object type
Payload
Rocket body
Debris
Shape & HBR
Box, 0.5 m
Radar Cross Section
1.500 m², Large (>1 m²)

Expand to show TLE details & history
Last TLE update: 22 hours ago

TLE from 22 hours ago
0 MKA PN2 (RELEK)
1 40070U 14037B   25301.48759029  .00001131  00000-0  24223-3 0  9993
2 40070  98.0453 282.4242 0132394  69.3049 292.2283 14.55238917599386
Epoch: 2025-10-28T11:42Z
TLE epoch observation values (Epoch: 2025-10-28T11:42:07.801Z)
Latitude
-0.00004°
Longitude
69.81733°
Altitude
677.145 km
Speed
7.536 km/s
True Right ascension
18h 49m 41s
True Declination
0° 00' 00"
Sunlit
Object was in daylight at epoch
Visualization orbit readout
Latitude
Unknown
Longitude
Unknown
Altitude
Unknown
Speed
Unknown
Apparent Right ascension
Unknown
Apparent Declination
Unknown
Sunlit
N/A
Visualization observer readout
Local Sidereal Time
05:28:14
Azimuth
Unknown
Elevation
Unknown
Doppler factor
Unknown
Orbital elements
Apogee altitude
799.454 km
Perigee altitude
611.883 km
Semi-major axis
7,083.806 km
Eccentricity
0.01324
Inclination
98.0453°
RAAN
282.4242°
Arg. of periapsis
69.3049°
True anomaly
290.81522°
Mean anomaly
292.2283°
Eccentric anomaly
291.52263°
Mean motion
3.64035 °/min
Orbital period
98.89 mins
BSTAR
0.00024223
Loading maneuver chart data...
Computing Atmospheric mass density...
Loading historical data...
Loading historical data...
Loading historical data...
Loading historical data...
Loading historical data...
Loading historical data...
Loading historical data...

Documentation

Showing up to 5 results
|